Погода в Лубумбаши

Демократическая Республика Конго     11°40′30″S   27°29′19″E
темп.,
°C
ветер,
м/с
пор.,
м/с
влажн.,
%
обл.,
%
осадки,
мм/ч
давл.,
гПа
погр.,
м
27 ноября, сб
сб2701:00+16юв1998100 1.4 1015320
04:00+16вюв299999 0.8 1016399
07:00+19вюв5990100 0.9 1017637
10:00+22в476998 0.1 10151035
13:00+26в455497 0.3 10111542
16:00+22юв377796 1.1 1012326
19:00+19юв2791100 1.7 1014171
22:00+17юв2119422 0.0 1015385
28 ноября, вс
вс2801:00+16вюв119728 0.0 101418
04:00+15вюв119788 0.0 101618
07:00+20в487822 0.0 1016597
10:00+27в354434 0.0 10131833
13:00+27в2350100 0.2 10091266
16:00+25в115527 0.0 100945
19:00+21юв236915 0.0 101175
22:00+18в118223 0.1 101311
29 ноября, пн
пн2901:00+17ююв118873 0.3 101211
04:00+18в228562 0.0 101328
07:00+23в355771 0.0 1014534
10:00+30в343616 0.0 10111899
13:00+31юв343199 0.0 10073174
16:00+28ююз234135 0.0 1007295
19:00+22зюз115549 0.0 100911
22:00+21з2459100 0.0 101178
30 ноября, вт
вт3001:00+20зюз127098 0.0 101038
04:00+18з117724 0.0 101211
07:00+26в015058 0.0 1012450
10:00+31всв35321 0.0 10101790
13:00+34св342415 0.0 10053567
16:00+30св373182 0.0 1004367
19:00+22зсз22606 0.0 100819
22:00+21сз117299 0.0 101015
1 декабря, ср
ср101:00+19сз2484100 0.5 101070
04:00+18зюз228868 0.2 101116
07:00+23с227023 0.8 1013359
10:00+24ссв246446 0.1 1012335
13:00+35ю132415 0.1 10052958
16:00+24св1249100 0.7 100637
19:00+21св017274 0.7 101062
22:00+19сз397972 0.0 1011226